Location: Goll?ig?dem
(16.6773°N, 80.7332°E)
Time: 07:01:32
(UTC+00:00)

Envisat - Pass Details

Date: 26 September 2021
Orbit: 764 x 766 km, 98.2° (Epoch: 23 October)

Event Time Altitude Azimuth Distance (km) Brightness Sun altitude
Rises 23:29:27 0° 12° (NNE) 3,222 6.4 -14.5°
Reaches altitude 10° 23:31:45 10° 13° (NNE) 2,295 5.7 -14.0°
Maximum altitude 23:36:49 86° 103° (ESE) 768 3.0 -12.8°
Drops below altitude 10° 23:41:52 10° 191° (S) 2,291 5.3 -11.6°
Sets 23:44:10 0° 192° (SSW) 3,215 6.1 -11.0°
